This is the latest recevied weather packets stored in our database for station/object W7TRD. If no packets are shown the sender has not sent any weather packets the latest 10 day(s).
| Time | Temp. | Humidity | Pressure | Rain* | Wind** | Luminosity | Snow |
|---|---|---|---|---|---|---|---|
| 1788449650 | 12.78° C | 95% | 1011.4 hPa | 0 mm | - | 39 W/m² | - |
| 1788449346 | 12.78° C | 95% | 1011.2 hPa | 1.78 mm | - | 59 W/m² | - |
| 1788449042 | 12.78° C | 94% | 1011.1 hPa | 1.78 mm | - | 52 W/m² | - |
| 1788448737 | 12.78° C | 95% | 1011.2 hPa | 0 mm | - | 24 W/m² | - |
| 1788448432 | 12.78° C | 95% | 1011.2 hPa | 0 mm | - | 24 W/m² | - |
| 1788448133 | 12.78° C | 94% | 1011 hPa | 0 mm | - | 31 W/m² | - |
| 1788447833 | 12.78° C | 94% | 1011.2 hPa | 0 mm | - | 54 W/m² | - |
| 1788447527 | 12.78° C | 94% | 1011 hPa | 0 mm | - | 49 W/m² | - |
| 1788447223 | 12.78° C | 95% | 1011.2 hPa | 1.27 mm | - | 23 W/m² | - |
| 1788446922 | 12.78° C | 95% | 1011.4 hPa | 1.27 mm | - | 17 W/m² | - |
| 1788446617 | 12.22° C | 95% | 1011.1 hPa | 0 mm | - | 15 W/m² | - |
| 1788446312 | 12.22° C | 95% | 1011.2 hPa | 0 mm | - | 19 W/m² | - |
| 1788446010 | 12.22° C | 95% | 1011.1 hPa | 0 mm | - | 14 W/m² | - |
| 1788445705 | 12.22° C | 95% | 1010.8 hPa | 0 mm | - | 13 W/m² | - |
| 1788445401 | 12.22° C | 96% | 1010.9 hPa | 0 mm | - | 13 W/m² | - |
| 1788445096 | 12.22° C | 96% | 1010.8 hPa | 0 mm | - | 9 W/m² | - |
| 1788444792 | 12.22° C | 96% | 1010.8 hPa | 0 mm | - | 10 W/m² | - |
| 1788444492 | 12.22° C | 96% | 1010.7 hPa | 0 mm | - | 8 W/m² | - |
| 1788444187 | 12.22° C | 96% | 1010.7 hPa | 1.78 mm | - | 6 W/m² | - |
| 1788443883 | 12.22° C | 95% | 1010.7 hPa | 3.05 mm | - | 4 W/m² | - |
| 1788443578 | 12.22° C | 95% | 1010.7 hPa | 1.27 mm | - | 3 W/m² | - |
| 1788443277 | 12.22° C | 96% | 1010.8 hPa | 0 mm | - | 2 W/m² | - |
| 1788442973 | 12.22° C | 96% | 1010.6 hPa | 0 mm | - | 1 W/m² | - |
| 1788442670 | 12.22° C | 95% | 1010.8 hPa | 0 mm | - | 1 W/m² | - |
| 1788442367 | 12.22° C | 95% | 1010.6 hPa | 1.78 mm | - | 1 W/m² | - |
* Rain latest hour (hover to see other rain measurements)
** Current wind speed in m/s (hover to see current wind gust speed)